Flag for Japan Weather past 2 weeks in Suzuka, Japan

Now
35 °F

Chilly.


Feels Like: 31 °F
Forecast: 31 / 53 °F
Wind: 5 mph from West

Location: Tsu

Current Time: Mar 3, 2015 at 5:47:48 AM

Latest Report: Mar 3, 2015 at 5:00 AM


Visibility: N/A

Pressure: 30.10 "Hg

Humidity: 84%

Dew point: 30 °F

Location of SuzukaLocation

Historic Weather in Suzuka — Graph

°F

Suzuka temperature yesterday

Maximum temperature yesterday: 51 °F (at 2:00 PM)
Minimum temperature yesterday: 40 °F (at 11:00 PM)
Average temperature yesterday: 45 °F

Past Weeks' High & Low Weather Summary

 TemperatureHumidityPressure
High60 °F (Feb 23, 1:00 PM)96% (Feb 22, 11:00 PM)30.37 "Hg (Feb 22, 11:00 PM)
Low33 °F (Feb 21, 7:00 AM)22% (Feb 16, 2:00 PM)29.64 "Hg (Mar 1, 3:00 PM)
Average46 °F66%30.04 "Hg
* Reported Feb 16 3:00 AM — Mar 3 3:00 AM, Suzuka, Weather by CustomWeather, © 2015

Note: Actual official high and low records may vary slightly from our data, if they occured in-between our weather recording intervals... More about our weather records

Advertising

Suzuka weather history for previous 24 hours

 ConditionsComfort  
Time TempWeatherWind HumidityBarometerVisibility
3:00 AM
Tue, Mar 3
37 °FChilly.3 mph79%30.13 "HgN/A
2:00 AM39 °FChilly.5 mph69%30.13 "HgN/A
1:00 AM37 °FChilly.2 mph79%30.16 "HgN/A
12:00 AM39 °FChilly.6 mph75%30.14 "HgN/A
11:00 PM
Mon, Mar 2
40 °FChilly.9 mph71%30.11 "HgN/A
10:00 PM42 °FQuite cool.8 mph61%30.12 "HgN/A
9:00 PM43 °FPassing clouds.9 mph60%30.12 "Hg9 mi
8:00 PM44 °FQuite cool.5 mph61%30.11 "HgN/A
7:00 PM45 °FCool.10 mph57%30.09 "HgN/A
6:00 PM47 °FCool.9 mph51%30.07 "HgN/A
5:00 PM49 °FCool.13 mph44%30.04 "HgN/A
4:00 PM50 °FCool.12 mph36%30.02 "HgN/A
3:00 PM51 °FPassing clouds.15 mph40%30.01 "Hg12 mi
2:00 PM51 °FCool.12 mph42%30.01 "HgN/A
1:00 PM50 °FCool.13 mph45%30.01 "HgN/A
12:00 PM48 °FCool.10 mph56%30.03 "HgN/A
11:00 AM47 °FCool.10 mph52%30.03 "HgN/A
10:00 AM46 °FCool.13 mph55%30.01 "HgN/A
9:00 AM45 °FPartly sunny.10 mph62%30.01 "Hg9 mi
8:00 AM43 °FQuite cool.12 mph69%30.00 "HgN/A
7:00 AM42 °FQuite cool.10 mph68%29.97 "HgN/A
5:00 AM42 °FQuite cool.16 mph62%29.90 "HgN/A
Weather by CustomWeather, © 2015

See weather overviewHow to use our weather pages